Flag for U.S.A. Weather past 2 weeks in Thousand Oaks, California, U.S.A.

Now
75 °F

Sunny.


Feels Like: 77 °F
Forecast: 65 / 82 °F
Wind: 21 mph from Southwest

Location: Camarillo Airport

Current Time: Jun 30, 2015 at 5:30:40 PM

Latest Report: Jun 30, 2015 at 4:55 PM


Visibility: 10 mi

Pressure: 29.94 "Hg

Humidity: 62%

Dew point: 61 °F

Location of Thousand OaksLocation

Historic Weather in Thousand Oaks — Graph

°F

Thousand Oaks temperature yesterday

Maximum temperature yesterday: 80 °F (at 3:55 PM)
Minimum temperature yesterday: 61 °F (at 5:55 AM)
Average temperature yesterday: 69 °F

Past Weeks' High & Low Weather Summary

 TemperatureHumidityPressure
High81 °F (Jun 30, 12:55 PM)90% (Jun 17, 3:55 AM)30.06 "Hg (Jun 17, 3:55 AM)
Low55 °F (Jun 19, 4:55 AM)41% (Jun 19, 1:55 PM)29.80 "Hg (Jun 20, 2:55 AM)
Average67 °F71%29.93 "Hg
* Reported Jun 15 3:55 PM — Jun 30 3:55 PM, Thousand Oaks, Weather by CustomWeather, © 2015

Note: Actual official high and low records may vary slightly from our data, if they occured in-between our weather recording intervals... More about our weather records

Advertising

Thousand Oaks weather history for previous 24 hours

 ConditionsComfort  
Time TempWeatherWind HumidityBarometerVisibility
3:55 PM
Tue, Jun 30
79 °FSunny.12 mph52%29.90 "Hg10 mi
2:55 PM80 °FSunny.10 mph49%29.90 "Hg10 mi
1:55 PM80 °FSunny.12 mph51%29.90 "Hg10 mi
12:55 PM81 °FSunny.10 mph49%29.91 "Hg10 mi
11:55 AM79 °FSunny.9 mph54%29.92 "Hg10 mi
10:55 AM78 °FSunny.7 mph54%29.91 "Hg10 mi
9:55 AM77 °FSunny.7 mph56%29.91 "Hg10 mi
8:55 AM72 °FSunny.3 mph64%29.92 "Hg10 mi
7:55 AM67 °FSunny.No wind76%29.91 "Hg9 mi
6:55 AM64 °FSunny.No wind81%29.90 "Hg9 mi
5:55 AM62 °FClear.No wind80%29.90 "Hg8 mi
4:55 AM62 °FClear.No wind83%29.90 "Hg8 mi
3:55 AM62 °FClear.No wind80%29.90 "Hg8 mi
2:55 AM63 °FClear.No wind81%29.89 "Hg9 mi
1:55 AM63 °FClear.No wind84%29.91 "Hg9 mi
12:55 AM63 °FClear.3 mph84%29.91 "Hg10 mi
11:55 PM
Mon, Jun 29
64 °FClear.No wind81%29.92 "Hg10 mi
10:55 PM65 °FClear.No wind78%29.92 "Hg10 mi
9:55 PM66 °FClear.5 mph75%29.92 "Hg10 mi
8:55 PM67 °FSunny.5 mph73%29.89 "Hg10 mi
7:55 PM70 °FSunny.7 mph64%29.88 "Hg10 mi
6:55 PM72 °FSunny.5 mph57%29.88 "Hg10 mi
5:55 PM75 °FSunny.9 mph54%29.88 "Hg10 mi
Weather by CustomWeather, © 2015

See weather overviewHow to use our weather pages